Voltar ao catálogo

USA 18

AtivoMilitarLEO
NORAD 16631·PAYLOAD·🇺🇸 United States

Lançado Feb 9, 1986 de Vandenberg Space Force Base

Loading…

Próximas Passagens (próximas 24 horas)

TLE

AtualizadoSource: Space-Track

Época: Sep 14, 2026, 09:41 UTC

1 16631U 86014H   26257.40403214  .00006510  00000-0  41616-3 0  9999
2 16631  63.2938 136.5226 0744485 114.2741 253.7896 13.93513579356782

Acompanhe USA 18 em tempo real com AllMySat

Download on the App Store